Weather observations for the past three days for
Burlington - Carson County Airport
Metric (Imperial)
Date Time (mdt) Wind (kph) Vis. (km) Weather Sky Cond. Temperature (ºC) Relative Humidity Wind Chill (°C) Heat Index (°C) Pressure Precipitation (cm)
Air Dwpt 6 hour altimeter (cm) sea level (mb) 1 hr 3 hr 6 hr
Max. Min.
03 12:53 N 15 G 33 16.09 Fair CLR 23.3 -4.4 15% 76.05 1009.6
03 11:53 N 15 16.09 Fair CLR 21.7 -3.9 22.2 6.7 18% 76.1 1010.9
03 10:53 N 19 G 31 16.09 Fair CLR 21.7 -2.2 20% 76.15 1011.4
03 09:53 NW 24 16.09 Fair CLR 21.1 -3.9 18% 76.15 1011.3
03 08:53 W 24 16.09 Fair CLR 19.4 -0.6 26% 76.15 1011.4
03 07:53 SW 19 16.09 Fair CLR 16.1 -0.6 32% 76.12 1011.5
03 06:53 SW 13 16.09 Fair CLR 10 -1.7 44% 8 76.15 1011.6
03 05:53 SW 15 16.09 Fair CLR 6.7 -2.8 12.2 5 51% 4 76.12 1011.7
03 04:53 SW 17 16.09 Fair CLR 5.6 -3.3 53% 3 76.15 1012.0
03 03:53 SW 13 16.09 Fair CLR 6.1 -3.9 49% 4 76.17 1012.4
03 02:53 SW 17 16.09 Fair CLR 8.3 -3.3 44% 6 76.2 1012.6
03 01:53 SW 24 16.09 Fair CLR 10.6 -4.4 35% 76.25 1013.1
03 00:53 SW 20 16.09 Fair CLR 11.1 -4.4 34% 76.28 1013.8
02 23:53 SW 22 16.09 Fair CLR 10.6 -3.9 22.2 10 36% 76.28 1014.0
02 22:53 SW 22 16.09 Fair CLR 11.1 -4.4 34% 76.28 1014.1
02 21:53 SW 17 16.09 Fair CLR 11.7 -3.9 34% 76.3 1014.7
02 20:53 SW 17 16.09 Fair CLR 12.8 -3.3 33% 76.3 1014.9
02 19:53 SW 19 16.09 Fair CLR 15 -3.3 28% 76.28 1014.9
02 18:53 SW 17 16.09 Fair CLR 20.6 -4.4 18% 76.28 1014.8
02 17:53 Vrbl 6 16.09 Fair CLR 21.7 -7.2 22.8 16.7 14% 76.28 1015.2
02 16:53 Calm 16.09 Fair CLR 21.7 -8.3 13% 76.3 1015.5
02 15:53 NW 17 G 31 16.09 Fair CLR 22.2 -7.2 13% 76.35 1016.0
02 14:53 S 17 G 30 16.09 Fair CLR 21.1 -5 17% 76.43 1016.6
02 13:53 Vrbl 9 16.09 Fair CLR 20.6 -3.9 19% 76.5 1017.6
02 12:53 Vrbl 6 16.09 Fair CLR 18.3 -2.2 25% 76.56 1018.7
02 11:53 Calm 16.09 Fair CLR 16.7 -1.7 17.8 -2.8 29% 76.63 1020.1
02 10:53 SW 11 G 28 16.09 Fair CLR 15 0.6 38% 76.68 1020.9
02 09:53 S 19 16.09 Fair CLR 12.8 0.6 44% 76.68 1020.8
02 08:53 S 20 16.09 Fair CLR 10 2.2 59% 8 76.71 1021.1
02 07:53 Calm 16.09 Fair CLR 5.6 3.3 85% 76.71 1021.3
02 06:53 Calm 9.66 Fog/Mist CLR 0.6 0 96% 76.71 1021.5
02 05:53 Calm 12.87 Fair CLR -1.7 -1.7 3.3 -3.3 100% 76.68 1021.2
02 04:53 Calm 16.09 Fair CLR -1.7 -1.7 100% 76.66 1020.9
02 03:53 Calm 16.09 Fair CLR -1.7 -2.2 96% 76.63 1020.7
02 02:53 Calm 16.09 Fair CLR 2.8 1.7 93% 76.58 1019.6
02 01:53 S 11 16.09 Fair CLR 2.2 1.1 93% -1 76.58 1019.7
02 00:53 S 17 16.09 Fair CLR 2.2 0.6 89% -2 76.61 1019.7
01 23:53 S 13 16.09 Fair CLR 1.7 0 16.7 1.7 89% -2 76.61 1020.0
01 22:53 SE 13 16.09 Fair CLR 2.8 -0.6 79% -0 76.58 1019.6
01 21:53 SE 19 16.09 Fair CLR 6.1 -1.7 58% 3 76.53 1018.8
01 20:53 E 20 16.09 Fair CLR 8.9 -2.2 46% 6 76.48 1017.8
01 19:53 E 15 16.09 Overcast OVC100 12.2 -3.3 34% 76.4 1017.0
01 18:53 N 15 16.09 Mostly Cloudy BKN110 15.6 -5.6 23% 76.35 1016.6
01 17:53 N 17 16.09 Mostly Cloudy BKN110 16.7 -7.2 17.8 13.9 19% 76.35 1016.4
01 16:53 NW 17 16.09 Mostly Cloudy BKN100 BKN120 17.2 -4.4 23% 76.35 1016.4
01 15:53 N 22 G 31 16.09 Overcast OVC100 16.1 -5.6 22% 76.35 1016.6
01 14:53 N 19 G 37 16.09 Mostly Cloudy BKN090 16.1 -5.6 22% 76.43 1017.2
01 13:53 N 17 G 31 16.09 Partly Cloudy SCT085 15.6 -5 24% 76.45 1017.7
01 12:53 NW 19 16.09 Partly Cloudy SCT080 16.1 -3.9 25% 76.48 1018.0
01 11:53 NW 17 16.09 Partly Cloudy SCT070 14.4 -3.9 15 0.6 28% 76.53 1018.9
01 10:53 NW 13 G 33 16.09 Fair CLR 13.9 -2.2 33% 76.56 1019.3
01 09:53 NW 20 16.09 Fair CLR 12.2 1.7 49% 76.56 1019.6
01 08:53 NW 19 16.09 Fair CLR 10.6 3.9 64% 76.56 1019.6
01 07:53 W 13 16.09 Fair CLR 6.7 3.9 83% 4 76.56 1020.2
01 06:53 W 13 16.09 Fair CLR 2.2 1.7 97% -1 76.56 1020.6
01 05:53 W 15 16.09 Fair CLR 0.6 0 2.8 0.6 96% -3 76.53 1020.4
01 04:53 W 13 16.09 Fair CLR 0.6 0.6 100% -3 76.53 1020.5
01 03:53 W 11 16.09 Fair CLR 1.7 1.7 100% -1 76.56 1020.3
01 02:53 W 11 16.09 Fair CLR 2.2 1.7 97% -1 76.56 1020.6
01 01:53 W 13 16.09 Fair CLR 1.7 1.1 96% -2 76.58 1021.0
01 00:53 W 15 14.48 Fair CLR 2.2 1.7 97% -1 76.61 1021.1
30 23:53 W 15 16.09 Fair CLR 2.2 1.7 7.8 1.1 97% -1 76.61 1021.4
30 22:53 W 9 12.87 Fair CLR 2.2 2.2 100% -0 76.63 1021.5
30 21:53 SW 13 16.09 Fair CLR 3.3 2.8 97% 0 76.63 1021.6
30 20:53 Calm 16.09 Mostly Cloudy BKN085 4.4 3.9 97% 76.58 1020.7
30 19:53 S 6 16.09 Overcast OVC080 6.7 5 89% 76.53 1019.8
30 18:53 NE 7 16.09 Overcast BKN060 OVC080 7.2 4.4 83% 6 76.5 1019.4
30 17:53 NE 9 16.09 Overcast BKN031 OVC041 7.8 4.4 8.9 6.7 79% 6 76.5 1019.5 0.03
30 16:53 N 17 16.09 Overcast FEW011 BKN024 OVC029 6.7 5.6 93% 4 76.5 1019.3
30 15:53 E 11 16.09 Overcast FEW022 OVC048 8.9 4.4 74% 7 76.5 1018.9
30 14:53 S 11 16.09 Overcast FEW016 SCT029 OVC045 7.8 5 83% 6 76.53 1019.5 0.03
30 13:53 NE 19 16.09 Overcast BKN014 OVC039 8.3 5.6 83% 6 76.56 1019.6
Date Time (mdt) Wind (kph) Vis. (km) Weather Sky Cond. Air Dwpt Max. Min. Relative Humidity Wind Chill (°C) Heat Index (°C) altimeter (cm) sea level (mb) 1 hr 3 hr 6 hr
6 hour
Temperature (ºC) Pressure Precipitation (cm)